AO-07 1 07530U 74089B 21133.86816073 -.00000051 00000-0 -31677-4 0 9998 2 07530 101.8519 108.4107 0012635 88.3951 25.2991 12.53648607127633 UO-11 1 14781U 84021B 21133.51770710 .00000140 00000-0 23170-4 0 9996 2 14781 97.5927 135.0800 0008141 186.0856 174.0261 14.83281882980752 LO-19 1 20442U 90005G 21133.43544603 -.00000006 00000-0 14305-4 0 9999 2 20442 98.7389 88.5881 0010613 263.9825 96.0149 14.32985454635819 HUBBLE 1 20580U 90037B 21133.53674328 .00000588 00000-0 24611-4 0 9991 2 20580 28.4704 296.1134 0002816 48.8046 0.8500 15.09636625505775 MET-2/21 1 22782U 93055A 21133.66371078 .00000022 00000-0 67902-5 0 9994 2 22782 82.5477 331.5280 0023072 32.0421 35.9472 13.83835058398985 AO-27 1 22825U 93061C 21133.60638728 -.00000010 00000-0 14225-4 0 9998 2 22825 98.9194 150.3640 0009269 131.5070 228.6908 14.30114044441278 IO-26 1 22826U 93061D 21133.30525897 .00000002 00000-0 18463-4 0 9996 2 22826 98.9136 149.9674 0009931 121.1960 239.0197 14.30452663441206 FO-29 1 24278U 96046B 21133.47347511 -.00000025 00000-0 12849-4 0 9996 2 24278 98.5684 206.0813 0349371 240.1901 116.4078 13.53103777221514 NOAA-15 1 25338U 98030A 21133.70528168 .00000072 00000-0 48515-4 0 9994 2 25338 98.6846 162.5363 0010832 28.4572 331.7197 14.26028825196298 GO-32 1 25397U 98043D 21133.82874826 -.00000011 00000-0 14741-4 0 9999 2 25397 98.7690 79.4800 0001601 139.9672 220.1624 14.23707643186784 ISS 1 25544U 98067A 21133.90406538 .00001244 00000-0 30745-4 0 9999 2 25544 51.6442 152.2934 0003079 358.5329 70.7881 15.48999185283287 NO-44 1 26931U 01043C 21133.36232068 .00000010 00000-0 35451-4 0 9992 2 26931 67.0529 11.0013 0006834 262.7510 97.2815 14.30617801 24214 SO-50 1 27607U 02058C 21133.46902506 .00000061 00000-0 29189-4 0 9999 2 27607 64.5554 85.3234 0036643 33.5928 326.7486 14.75744710989383 CO-55 1 27844U 03031E 21133.51341244 .00000060 00000-0 46815-4 0 9990 2 27844 98.6808 142.2557 0009969 173.0521 187.0797 14.22307348927016 CO-57 1 27848U 03031J 21133.56657223 .00000042 00000-0 38714-4 0 9995 2 27848 98.6865 142.8741 0009590 185.9857 174.1207 14.21884436926859 RS-22 1 27939U 03042A 21133.86881829 .00000110 00000-0 28365-4 0 9999 2 27939 98.1347 271.2158 0013506 35.5568 324.6533 14.66978896942451 NOAA-18 1 28654U 05018A 21133.73923608 .00000098 00000-0 77135-4 0 9991 2 28654 98.9958 198.4620 0014518 24.7165 335.4699 14.12605324823638 CO-58 1 28895U 05043F 21132.88343958 .00000211 00000-0 49303-4 0 9998 2 28895 98.0533 266.9092 0015826 326.4332 33.5867 14.63906022829038 Falconsat-3 1 30776U 07006E 21133.24150760 .00005281 00000-0 12813-3 0 9995 2 30776 35.4349 326.4800 0003479 299.3649 60.6731 15.40469132787674 CO-65 1 32785U 08021C 21133.65019953 .00000288 00000-0 36384-4 0 9990 2 32785 97.6093 113.8488 0014397 115.5608 244.7099 14.88704595707060 AAUSAT2 1 32788U 08021F 21133.49758178 .00000353 00000-0 36736-4 0 9998 2 32788 97.5044 129.6231 0012639 34.0879 326.1152 14.95543554708735 DO-64 1 32789U 08021G 21133.73296909 .00001790 00000-0 11739-3 0 9996 2 32789 97.3787 170.4349 0010002 259.9755 100.0345 15.08867548711694 CO-66 1 32791U 08021J 21133.40693979 .00000386 00000-0 43950-4 0 9992 2 32791 97.5696 119.5617 0014879 83.8701 276.4213 14.91380169707553 RS-30 1 32953U 08025A 21133.78112265 .00000028 00000-0 12906-3 0 9990 2 32953 82.5033 72.4910 0020785 53.7203 306.5797 12.43101852588678 PRISM 1 33493U 09002B 21133.45245982 .00000892 00000-0 81679-4 0 9996 2 33493 98.1874 94.3146 0016456 46.7656 313.4935 14.97621802669081 NOAA-19 1 33591U 09005A 21133.76991839 .00000081 00000-0 69452-4 0 9996 2 33591 99.1856 153.6126 0013197 226.7531 133.2539 14.12466643632028 SRMSAT 1 37841U 11058D 21132.79172529 .00000303 00000-0 21057-4 0 9994 2 37841 19.9706 156.6153 0011652 262.0865 255.2576 14.10694353494621 HRBE 1 37855U 11061F 21133.71326023 .00001123 00000-0 61520-4 0 9996 2 37855 101.7146 39.1082 0167148 173.9858 186.3415 15.07547075521413 RS-40 1 38735U 12041C 21133.48874883 .00000038 00000-0 20024-3 0 9996 2 38735 82.4751 154.8986 0017604 157.7432 202.4422 12.42583113398841 ZACUBE-1 1 39417U 13066B 21133.66675184 .00000306 00000-0 44601-4 0 9991 2 39417 97.5915 119.7994 0057038 275.4373 84.0336 14.81500020403929 GOMX-1 1 39430U 13066Q 21133.84441292 .00000670 00000-0 12989-3 0 9994 2 39430 97.8142 58.9038 0149317 223.5492 135.3862 14.59599795397995 LO-74 1 39440U 13066AA 21133.47717704 .00000343 00000-0 54331-4 0 9993 2 39440 97.6738 104.5526 0079657 350.1778 9.7871 14.76227978402461 AO-73 1 39444U 13066AE 21133.53716045 .00000380 00000-0 52701-4 0 9991 2 39444 97.5824 122.0345 0056048 266.1387 93.3418 14.82403600402859 SPROUT 1 39770U 14029E 21133.78740137 .00000734 00000-0 85315-4 0 9999 2 39770 97.9121 245.0985 0007885 330.0564 30.0192 14.88368772378185 DTUSAT-2 1 40030U 14033W 21133.74608018 .00000399 00000-0 48423-4 0 9998 2 40030 97.9158 61.0011 0010501 292.7277 67.2829 14.88972039374661 EO-80 1 40032U 14033Y 21133.77548617 .00000336 00000-0 41775-4 0 9995 2 40032 97.9165 61.0366 0010417 293.6488 66.3635 14.88928679374659 HODOYOSHI-1 1 40299U 14070B 21133.85065586 .00000247 00000-0 12779-4 0 9992 2 40299 97.2859 208.3651 0014639 108.5571 358.4827 15.24664249362147 FIREBIRD FU3 1 40377U 15003B 21133.64924998 .00002605 00000-0 98317-4 0 9996 2 40377 99.0945 267.6090 0117097 289.6718 69.1908 15.22176868347503 FIREBIRD FU4 1 40378U 15003C 21133.62678806 .00002601 00000-0 97994-4 0 9995 2 40378 99.0950 267.7170 0117202 289.5556 69.3050 15.22226581347505 GRIFEX 1 40379U 15003D 21133.53247163 .00001433 00000-0 61778-4 0 9997 2 40379 99.0904 257.2235 0127993 321.9042 37.3189 15.17914734346897 NO-84 1 40654U 15025D 21132.52653230 .00020029 00000-0 15542-3 0 92 2 40654 54.9829 211.0222 0081294 332.2920 27.3915 15.67494126 1411 XW-2A 1 40903U 15049E 21133.85733514 .00004083 00000-0 87994-4 0 9997 2 40903 97.2373 188.4430 0013908 135.5860 340.5528 15.45074049317452 XW-2C 1 40906U 15049H 21133.86338289 .00001051 00000-0 57044-4 0 9996 2 40906 97.4840 136.6526 0013166 313.2836 164.3517 15.16683189312321 XW-2D 1 40907U 15049J 21133.86523330 .00001091 00000-0 58569-4 0 9997 2 40907 97.4824 136.4362 0012336 309.5238 169.8707 15.16995902312355 LILACSAT-2 1 40908U 15049K 21133.66517692 -.00000064 00000-0 11654-6 0 9996 2 40908 97.5028 134.1331 0014682 325.9941 145.3634 15.14404338311963 XW-2E 1 40909U 15049L 21133.87516385 .00002105 00000-0 10247-3 0 9999 2 40909 97.4644 140.4124 0011310 294.8899 184.2012 15.19437849312688 XW-2F 1 40910U 15049M 21133.86728306 .00001399 00000-0 70196-4 0 9992 2 40910 97.4707 139.4815 0012581 294.9369 184.7705 15.18937972312471 XW-2B 1 40911U 15049N 21133.86584817 .00001248 00000-0 66657-4 0 9990 2 40911 97.4824 137.1216 0012449 311.2657 166.5819 15.16913881312248 DCBB 1 40912U 15049P 21133.91624023 .00002088 00000-0 95898-4 0 9993 2 40912 97.4440 143.8926 0012429 262.9201 184.6765 15.21462409312949 TW-1A 1 40928U 15051D 21133.90315139 .00006615 00000-0 13931-3 0 9994 2 40928 97.0774 159.6387 0011426 64.9399 55.2797 15.45524921316353 IO-86 1 40931U 15052B 21133.55775801 .00000828 00000-0 26087-4 0 9993 2 40931 5.9995 141.2050 0014042 270.1948 89.6555 14.76675520304133 ATHENOXAT-1 1 41168U 15077C 21133.44721554 .00002508 00000-0 92129-4 0 9994 2 41168 14.9861 158.3312 0011942 42.7947 354.4215 15.15587367299466 ChubuSat-2 1 41338U 16012B 21132.47952890 .00000440 00000-0 27285-4 0 9998 2 41338 31.0038 54.6517 0013625 137.6968 222.4720 15.00512931287194 ChubuSat-3 1 41339U 16012C 21133.76987249 .00000289 00000-0 15567-4 0 9999 2 41339 31.0128 43.7054 0013220 157.9511 202.1714 15.00661803287382 Horyu-4 1 41340U 16012D 21133.79333615 .00000688 00000-0 44781-4 0 9999 2 41340 31.0064 27.5600 0013875 189.3283 170.7096 15.01864374287574 e-st@r-II 1 41459U 16025D 21133.84566660 .00004842 00000-0 23736-3 0 9990 2 41459 98.1371 267.9962 0161377 178.8243 181.3403 15.07901627277209 AAUSAT4 1 41460U 16025E 21133.81250718 .00005523 00000-0 25870-3 0 9991 2 41460 98.1360 271.6650 0147979 163.2613 197.3575 15.10908982277488 LO-87 1 41557U 16033B 21133.86020201 .00002308 00000-0 83670-4 0 9995 2 41557 97.3919 227.9968 0012550 6.4428 133.3668 15.29321997276241 NuSat2 1 41558U 16033C 21133.89491336 .00002004 00000-0 68526-4 0 9996 2 41558 97.4017 231.6917 0011593 0.7157 65.8974 15.31413163276430 Lapan A3 1 41603U 16040E 21133.90505983 .00000034 00000-0 46384-5 0 9991 2 41603 97.2570 182.1437 0014768 119.7726 4.7340 15.20016366271335 Pratham 1 41783U 16059A 21133.72413154 .00000073 00000-0 23266-4 0 9994 2 41783 97.9672 185.0142 0033370 358.0424 2.0642 14.63135143247174 TY-1 1 41844U 16066D 21133.89963146 .00002119 00000-0 85870-4 0 9991 2 41844 97.3985 144.4755 0012789 258.1478 218.8652 15.25699317250632 CAS-2T 1 41847U 16066G 21133.75864431 .00000067 00000-0 21140-4 0 9996 2 41847 98.6038 192.7354 0364582 324.1197 33.5990 14.38184641236893 EO-88 1 42017U 17008BX 21133.72421031 .00002875 00000-0 10789-3 0 9990 2 42017 97.3174 201.9455 0004851 217.6663 142.4237 15.28011356235951 CAS-4B 1 42759U 17034B 21133.70594291 .00000801 00000-0 61497-4 0 9999 2 42759 43.0193 12.1138 0010082 302.5339 157.6292 15.10191222215892 CAS-4A 1 42761U 17034D 21133.89094773 .00000702 00000-0 55420-4 0 9991 2 42761 43.0197 10.1752 0010392 305.0726 120.5473 15.10272731215920 NIUSat 1 42766U 17036B 21133.68306568 .00001553 00000-0 69550-4 0 9997 2 42766 97.2531 180.8602 0013425 301.8138 58.1791 15.22634131215926 Aalto 1 1 42775U 17036L 21133.65489004 .00001249 00000-0 56573-4 0 9994 2 42775 97.2501 181.0993 0011970 301.4443 58.5623 15.22601981215900 URSA MAIOR 1 42776U 17036M 21133.66326062 .00001356 00000-0 60746-4 0 9996 2 42776 97.2515 181.5534 0011763 300.8072 59.2007 15.22855967215924 Max Valier Sat 1 42778U 17036P 21133.69171617 .00001517 00000-0 66359-4 0 9990 2 42778 97.2579 183.4379 0010228 303.7199 56.3063 15.23510087215990 Pegasus 1 42784U 17036V 21133.71224116 .00001825 00000-0 77399-4 0 9991 2 42784 97.2533 183.9081 0009960 307.7392 52.2942 15.24314557216067 NUDATSat 1 42787U 17036Y 21133.89316293 .00002137 00000-0 85338-4 0 9990 2 42787 97.2572 186.3742 0009298 302.3574 57.6767 15.26178063216067 SUCHAI 1 1 42788U 17036Z 21133.66343114 .00002551 00000-0 10471-3 0 9993 2 42788 97.2539 184.8043 0009329 304.7397 55.2962 15.25079401216181 SKCUBE 1 42789U 17036AA 21132.70233291 .00002034 00000-0 84688-4 0 9990 2 42789 97.2539 183.6022 0009382 309.6890 50.3520 15.24823062215945 VZLUSAT 1 1 42790U 17036AB 21132.70650893 .00003048 00000-0 12067-3 0 9990 2 42790 97.2565 185.2125 0008550 304.5297 55.5134 15.26153931216031 VENTA 1 1 42791U 17036AC 21132.41976586 .00001311 00000-0 55664-4 0 9991 2 42791 97.2536 183.3467 0009112 311.6644 48.3813 15.24775118215890 Robusta 1B 1 42792U 17036AD 21133.66085877 .00002317 00000-0 95437-4 0 9993 2 42792 97.2535 184.8967 0008839 305.8681 54.1736 15.25058244216123 D-SAT 1 42794U 17036AF 21133.54120073 .00000567 00000-0 54126-4 0 9995 2 42794 97.4635 155.2826 0125098 343.3678 16.3454 14.91548432211851 TechnoSat 1 42829U 17042E 21133.69740755 .00000160 00000-0 21317-4 0 9997 2 42829 97.4738 5.0735 0012549 262.8824 97.0969 14.91271290208509 QIKCOM-1 1 42983U 98067NF 21133.56281708 .00010125 00000-0 10130-3 0 9990 2 42983 51.6371 76.5825 0002502 199.5193 160.5708 15.66258892201934 AO-91 1 43017U 17073E 21133.70742487 .00001235 00000-0 99289-4 0 9994 2 43017 97.7093 39.0682 0256474 53.9422 308.5256 14.79487355187988 EcAMSat 1 43019U 98067NG 21133.94393236 .00023780 00000-0 14324-3 0 9993 2 43019 51.6390 42.9896 0003391 158.8820 285.8699 15.77565795284737 PICSAT 1 43132U 18004X 21133.49697914 .00001945 00000-0 79068-4 0 9998 2 43132 97.4098 208.3542 0008313 342.0832 18.0112 15.25728767185358 AO-92 1 43137U 18004AC 21133.75802164 .00001685 00000-0 70083-4 0 9996 2 43137 97.4077 208.1434 0008133 344.4975 15.6013 15.25149839185363 TianYi 2 1 43155U 18008A 21133.86400215 .00001566 00000-0 93568-4 0 9994 2 43155 97.4047 199.8708 0019057 89.6749 34.2950 15.12365456182842 Zhou Enlai 1 43156U 18008B 21133.85361803 .00001184 00000-0 72501-4 0 9993 2 43156 97.4082 199.6947 0016318 89.3693 22.7152 15.11965773182783 TianYi 6 1 43158U 18008D 21133.78793142 .00000982 00000-0 61719-4 0 9996 2 43158 97.4009 198.2543 0015194 88.6293 50.9781 15.11402951182707 S-Net D 1 43186U 18014G 21133.73344660 .00000101 00000-0 13738-4 0 9997 2 43186 97.6791 41.9411 0010563 191.9870 168.1102 14.97038333179101 S-Net B 1 43187U 18014H 21133.73335311 .00000101 00000-0 13740-4 0 9994 2 43187 97.6788 41.9088 0010562 191.8805 168.2170 14.97037841179103 S-Net A 1 43188U 18014J 21133.73337644 .00000094 00000-0 13192-4 0 9998 2 43188 97.6792 41.9519 0010556 192.0042 168.0930 14.97036589179107 S-Net C 1 43189U 18014K 21133.73385744 .00000111 00000-0 14621-4 0 9991 2 43189 97.6788 41.9021 0010568 191.8651 168.2324 14.97036484177658 FMN 1 1 43192U 18015A 21133.90271181 .00004023 00000-0 15046-3 0 9991 2 43192 97.4834 269.1153 0014361 11.4265 107.1613 15.27828771182319 Shaonian Xing 1 43199U 18015H 21133.91541465 .00002923 00000-0 11153-3 0 9996 2 43199 97.4615 266.4102 0015805 20.6564 96.5999 15.27377211182377 SurfSat 1 43614U 18070B 21133.69594326 .00005863 00000-0 13796-3 0 9999 2 43614 93.0276 291.5245 0016246 132.0564 228.2077 15.41849146149314 CP-7 DAVE 1 43615U 18070C 21133.70685826 .00005926 00000-0 14073-3 0 9997 2 43615 93.0280 291.4892 0016402 132.0838 228.1815 15.41572411149301 ELFIN-B 1 43616U 18070D 21133.72832578 .00009689 00000-0 20990-3 0 9993 2 43616 93.0236 291.6476 0016340 130.7780 229.4898 15.44287239149416 ELFIN-A 1 43617U 18070E 21133.69821372 .00010133 00000-0 21631-3 0 9999 2 43617 93.0284 292.4489 0015709 127.8115 232.4567 15.44730489149428 STARS-Me Mother 1 43640U 98067PQ 21133.78025568 .00166010 21721-4 44819-3 0 9998 2 43640 51.6256 51.1685 0003828 157.2388 202.8789 15.93968732148760 CubeBel 1 1 43666U 18083E 21133.87165716 .00001893 00000-0 92978-4 0 9996 2 43666 97.4557 162.6741 0012676 292.3356 185.0469 15.19242843140763 Changshagaoxin 1 43669U 18083H 21133.90046389 .00001841 00000-0 93715-4 0 9990 2 43669 97.4468 159.8821 0008986 288.4982 193.4495 15.18042558140643 Ten-Koh 1 43677U 18084G 21133.61256571 .00000300 00000-0 36639-4 0 9995 2 43677 97.9151 256.5711 0016845 145.5721 214.6592 14.90453608138110 PO-101 1 43678U 18084H 21133.84199466 .00000636 00000-0 68827-4 0 9996 2 43678 97.9185 258.9534 0010933 157.3560 202.8115 14.91745915138274 IRVINE 01 1 43693U 18088D 21133.65639156 .00005360 00000-0 21025-3 0 9998 2 43693 85.0373 218.0733 0018252 147.5925 212.6444 15.25329475139131 QO-100 1 43700U 18090A 21133.68060187 .00000154 00000-0 00000 0 0 9997 2 43700 0.0115 319.2611 0000920 89.7422 93.4558 1.00272366 9267 Reaktor Hello World 1 43743U 18096AA 21132.77618729 .00002142 00000-0 79212-4 0 9995 2 43743 97.3865 210.5609 0018379 47.3419 312.9366 15.28667089136686 MinXSS-2 1 43758U 18099A 21133.72305550 .00000385 00000-0 39340-4 0 9990 2 43758 97.6677 205.6338 0016112 160.3760 199.8085 14.96019008133322 AO-95 1 43770U 18099N 21133.71989815 .00000296 00000-0 31979-4 0 9996 2 43770 97.6661 204.6716 0014885 168.3586 191.7982 14.95291247133263 RANGE-B 1 43772U 18099Q 21133.62136874 .00000951 00000-0 90673-4 0 9991 2 43772 97.6750 205.5165 0014881 155.4212 204.7721 14.95587820133251 RANGE-A 1 43773U 18099R 21133.72292186 .00000327 00000-0 34864-4 0 9999 2 43773 97.6596 204.0322 0014213 155.5579 204.6319 14.95191380133259 MOVE-II 1 43780U 18099Y 21133.62834556 .00000749 00000-0 72001-4 0 9992 2 43780 97.6682 205.0763 0013862 164.2479 195.9176 14.95881254133268 SNUSat 2 1 43782U 18099AA 21133.75824614 .00000513 00000-0 51328-4 0 9990 2 43782 97.6663 205.0380 0013438 153.3288 206.8627 14.95539742133287 SnugLite 1 43784U 18099AC 21133.76951029 .00000075 00000-0 11897-4 0 9994 2 43784 97.6626 204.7848 0015486 162.0519 198.1252 14.95660750133306 ITASat 1 1 43786U 18099AE 21133.71287840 .00000000 00000-0 51389-5 0 9993 2 43786 97.6681 205.3184 0015626 161.9253 198.2527 14.95590782133299 EAGLET 1 1 43790U 18099AJ 21133.75553185 .00000557 00000-0 54727-4 0 9995 2 43790 97.6674 205.7583 0013851 163.9792 196.1870 14.95950042133029 ESEO 1 43792U 18099AL 21133.73522178 .00000453 00000-0 45738-4 0 9990 2 43792 97.6636 205.3576 0013851 161.9573 198.2143 14.95726668133078 CSIM 1 43793U 18099AM 21133.71261660 .00000346 00000-0 35432-4 0 9996 2 43793 97.6665 205.6655 0013595 158.4550 201.7247 14.96537064133079 Astrocast 0.1 1 43798U 18099AS 21132.77401734 .00000392 00000-0 39867-4 0 9991 2 43798 97.6679 204.9790 0013139 147.8778 212.3247 14.96149523133188 JO-97 1 43803U 18099AX 21133.74930786 .00000982 00000-0 92820-4 0 9993 2 43803 97.6645 205.1100 0015715 160.9610 199.2202 14.95832614133306 Suomi 100 1 43804U 18099AY 21133.68724541 .00000804 00000-0 77003-4 0 9996 2 43804 97.6643 205.0188 0015716 161.2807 198.8995 14.95805924133301 Al Farabi 2 1 43805U 18099AZ 21133.89397347 .00001222 00000-0 11376-3 0 9995 2 43805 97.6657 205.4245 0015535 159.3131 200.8722 14.96019127133341 CHOMPTT 1 43855U 18104G 21133.58635518 .00001500 00000-0 60319-4 0 9999 2 43855 85.0340 316.6218 0014815 276.2012 83.7543 15.23882727133780 ISAT 1 43879U 18111D 21133.89635753 .00001703 00000-0 15444-3 0 9991 2 43879 97.6867 41.7625 0012145 210.7409 149.3114 14.96602469127883 UWE-4 1 43880U 18111E 21133.68934491 .00001067 00000-0 98100-4 0 9995 2 43880 97.6892 42.0119 0011161 213.8147 146.2364 14.96836131127883 Sparrow 1 43881U 18111F 21133.72817621 .00000111 00000-0 14732-4 0 9994 2 43881 97.6896 42.1756 0011460 213.4296 146.6203 14.96889687127890 Lume 1 1 43908U 18111AJ 21133.64519519 .00001890 00000-0 75491-4 0 9994 2 43908 97.2366 29.4652 0022113 57.4334 302.9037 15.26119377132363 FO-98 1 43933U 19003B 21133.68788232 .00014342 00000-0 55544-3 0 9999 2 43933 97.1851 176.4043 0017839 151.2383 208.9844 15.26119431128808 FO-99 1 43937U 19003F 21133.69236139 .00002527 00000-0 10136-3 0 9998 2 43937 97.1789 178.2641 0024718 133.0768 227.2546 15.25603672128969 MYSat 1 1 44045U 18092F 21133.68398134 .00006281 00000-0 16648-3 0 9994 2 44045 51.6378 235.8129 0010661 79.5438 280.6747 15.39638689126101 AstroCast 0.2 1 44083U 19018F 21133.73863713 .00001783 00000-0 79826-4 0 9991 2 44083 97.3750 195.4666 0014630 94.4178 265.8730 15.22469933117617 AISTechSat 3 1 44103U 19018AB 21133.87504578 .00001255 00000-0 54620-4 0 9999 2 44103 97.3599 195.9736 0014931 104.4582 14.4179 15.23981615117745 AISat 1 1 44104U 19018AC 21133.72542598 .00001780 00000-0 57271-4 0 9996 2 44104 97.4263 210.8972 0058326 118.2787 242.4358 15.31976215118359 Raavana-1 1 44329U 98067QE 21132.33123757 .00035470 00000-0 24757-3 0 9999 2 44329 51.6334 111.0753 0004547 112.8094 247.3385 15.73941923108464 Uguisu 1 44330U 98067QF 21132.63528715 .00044201 00000-0 31228-3 0 9990 2 44330 51.6299 110.0221 0004426 115.0331 245.1128 15.73553894108489 NepaliSat-1 1 44331U 98067QG 21132.64268597 .00046626 00000-0 32412-3 0 9990 2 44331 51.6300 109.3185 0004349 116.5268 243.6177 15.73908474108500 Prox-1 1 44339U 19036A 21132.53077881 .00001007 00000-0 18688-3 0 9992 2 44339 23.9990 200.4468 0010867 144.5608 215.5606 14.53538974 99957 Oculus-ASR 1 44348U 19036K 21133.74596505 .00011055 00000-0 14826-3 0 9999 2 44348 28.5162 4.6301 0333240 251.6216 104.7866 15.11272687103658 Armadillo 1 44352U 19036P 21133.75550972 .00015876 00000-0 20120-3 0 9992 2 44352 28.5317 345.7882 0304782 280.6531 75.9884 15.18291925103796 NO-104 1 44354U 19036R 21133.74295361 .00011216 00000-0 14691-3 0 9991 2 44354 28.5320 358.3100 0328405 259.9627 96.3762 15.12735919103701 NO-103 1 44355U 19036S 21133.73753833 .00026248 00000-0 29424-3 0 9995 2 44355 28.5250 318.7290 0270714 324.5310 33.7557 15.27649250104101 CP9 1 44360U 19036X 21133.68528399 .00075079 -47948-5 54124-3 0 9991 2 44360 28.5040 261.9393 0203279 58.7716 303.2636 15.49069027104537 Move-IIb 1 44398U 19038N 21133.60288267 .00001498 00000-0 86720-4 0 9997 2 44398 97.5806 97.7710 0026358 70.3049 290.1024 15.13527174102493 SONATE 1 44400U 19038Q 21133.58273673 .00000286 00000-0 20105-4 0 9992 2 44400 97.5868 97.6524 0026612 70.5347 289.8756 15.12486585102466 BeeSat 9 1 44412U 19038AC 21133.62226013 .00001456 00000-0 85312-4 0 9997 2 44412 97.5856 97.9411 0023921 75.1556 285.2323 15.13185078102180 JAISAT-1 1 44419U 19038F 21133.47094337 .00001408 00000-0 81571-4 0 9999 2 44419 97.5861 98.3101 0022803 74.1274 286.2469 15.13669277102504 LightSail-2 1 44420U 19036AC 21132.49520030 .00003451 00000-0 66062-3 0 9991 2 44420 24.0072 182.3528 0013562 131.9443 228.2207 14.59901349 98355 Taurus 1 1 44530U 19059C 21132.88393351 -.00000044 00000-0 36646-6 0 9999 2 44530 98.5474 222.9280 0012684 242.8451 117.1414 14.46024621 87944 Duchifat 3 1 44854U 19089C 21133.83376260 .00000809 00000-0 71020-4 0 9998 2 44854 36.9663 305.3654 0008762 228.1372 131.8585 14.99464837 77903 OPS-SAT 1 44878U 19092F 21133.48263523 .00001499 00000-0 80405-4 0 9999 2 44878 97.4748 317.4898 0012252 294.3622 65.6331 15.16451368 77538 TO-108 1 44881U 19093C 21133.81802202 -.00000460 00000-0 -51881-4 0 9999 2 44881 97.9228 213.0215 0016127 50.1340 310.1262 14.81444893 75607 FloripaSat 1 1 44885U 19093G 21133.72358503 .00000969 00000-0 12783-3 0 9992 2 44885 97.9244 213.4598 0015782 59.0912 301.1854 14.82278720 75620 RS-44 1 44909U 19096E 21133.52332387 .00000005 00000-0 -27051-4 0 9999 2 44909 82.5178 136.0230 0217481 174.4767 185.8810 12.79709941 64351 SwampSat-2 1 45115U 19071E 21133.76388308 .00041091 00000-0 69885-3 0 9991 2 45115 51.6347 188.3994 0003699 177.5498 182.5510 15.51003858 72056 HO-107 1 45119U 19071J 21133.73212666 .00003567 00000-0 11232-3 0 9994 2 45119 51.6413 205.2211 0011345 162.6535 197.4837 15.35591864 71832 Phoenix 1 45258U 98067RB 21132.60086932 .00009313 00000-0 13820-3 0 9990 2 45258 51.6378 148.2299 0005797 110.3869 249.7745 15.55970788 69623 AztechSat-1 1 45261U 98067RE 21133.47466891 .00031123 00000-0 33423-3 0 9991 2 45261 51.6349 135.3087 0005507 119.2390 240.9156 15.63477160 69896 QARMAN 1 45263U 98067RG 21133.57042706 .00022972 00000-0 28074-3 0 9997 2 45263 51.6369 138.9631 0005737 120.4954 239.6607 15.60303900 69892 Quetzal 1 1 45598U 98067RL 21132.41869255 .00010947 00000-0 14697-3 0 9991 2 45598 51.6383 148.5396 0000239 296.1479 63.9489 15.58483800 58933 BY70-2 1 45857U 20042B 21133.89113590 .00001025 00000-0 15294-3 0 9995 2 45857 97.9834 209.9999 0009538 332.5061 27.5635 14.76932816 46446 UPMSat 2 1 46276U 20061E 21133.70951083 .00000733 00000-0 41106-4 0 9996 2 46276 97.4333 208.1841 0002970 106.9497 253.2062 15.16422035 38273 AmicalSat 1 46287U 20061R 21133.72799943 .00000863 00000-0 56318-4 0 9990 2 46287 97.4885 207.7538 0002327 179.7481 180.3750 15.10415421 38103 SALSAT 1 46495U 20068K 21133.58602038 .00000200 00000-0 19186-4 0 9997 2 46495 97.6902 71.2918 0016461 187.0754 173.0250 15.03421710 34099 BY70-3 1 46839U 20079N 21133.86930226 .00003605 00000-0 11383-3 0 9997 2 46839 97.2413 208.4144 0006073 344.6880 126.7304 15.33462390 28908 SPOC 1 46921U 98067RR 21132.76977504 .00008575 00000-0 13859-3 0 9990 2 46921 51.6402 153.8938 0002133 336.2030 23.8862 15.53729495 29308 Bobcat-1 1 46922U 98067RS 21132.75558994 .00012735 00000-0 19217-3 0 9995 2 46922 51.6410 153.0633 0002274 350.1999 9.8947 15.55134735 29270 Neutron-1 1 46923U 98067RT 21132.78246384 .00008904 00000-0 14425-3 0 9995 2 46923 51.6401 153.9764 0002318 348.9411 11.1529 15.53606528 29339 CAPE 3 1 47309U 21002A 21132.61405058 .00002205 00000-0 11026-3 0 9998 2 47309 60.6860 65.9255 0037178 28.8140 331.4989 15.20655295 17434 AO-109 1 47311U 21002C 21132.54558124 .00002000 00000-0 99039-4 0 9990 2 47311 60.6873 65.6021 0032062 29.2968 330.9907 15.21548693 17404 MiTEE 1 1 47314U 21002F 21133.76622774 .00003111 00000-0 14174-3 0 9991 2 47314 60.6865 60.2014 0029870 18.9330 341.2860 15.22927031 17627 ExoCube 2 1 47319U 21002L 21132.50724753 .00001357 00000-0 71850-4 0 9992 2 47319 60.6836 65.9731 0032689 28.0336 332.2501 15.21169216 17363 UVSQ-SAT 1 47438U 21006AB 21132.80296840 .00001084 00000-0 64924-4 0 9993 2 47438 97.4898 194.6612 0011833 215.0111 145.0343 15.13061192 16667 YUSAT 1 1 47439U 21006AC 21133.73079486 .00001243 00000-0 73913-4 0 9997 2 47439 97.4898 195.5704 0011791 211.7168 148.3354 15.13043534 16802 SOMP 2b 1 47445U 21006AJ 21133.73958486 .00000976 00000-0 59043-4 0 9990 2 47445 97.4868 195.5141 0011443 215.4693 144.5778 15.12908197 16801 IDEASSat 1 47458U 21006AX 21133.74936242 .00000980 00000-0 59488-4 0 9999 2 47458 97.4959 195.6361 0010607 212.5406 147.5172 15.12770824 16807 RSP-01 1 47925U 98067SB 21133.51638040 .00010643 00000-0 18810-3 0 9999 2 47925 51.6409 153.6141 0001539 297.7661 62.3172 15.50910720 9359 TAUSAT-1 1 47926U 98067SC 21132.60063900 .00010902 00000-0 18930-3 0 9997 2 47926 51.6407 157.9987 0002624 285.5065 74.5635 15.51384878 9205 Tsuru 1 47927U 98067SD 21132.48685876 .00007688 00000-0 13865-3 0 9995 2 47927 51.6413 158.7381 0001523 286.1181 73.9640 15.50794422 9199 STARS-EC 1 47928U 98067SE 21132.68230637 .00011242 00000-0 19924-3 0 9992 2 47928 51.6406 157.7901 0006400 347.8538 12.2296 15.50756850 9207 Maya-2 1 47929U 98067SF 21133.51664366 .00009512 00000-0 16935-3 0 9992 2 47929 51.6409 153.6158 0001554 286.2163 73.8656 15.50846914 9311 OPUSAT-II 1 47930U 98067SG 21132.67566342 .00012376 00000-0 21582-3 0 9991 2 47930 51.6410 157.7498 0001455 289.3547 70.7285 15.51120416 9224 GuaraniSat-1 1 47931U 98067SH 21133.51613274 .00009375 00000-0 16694-3 0 9996 2 47931 51.6409 153.6129 0001573 284.3521 75.7294 15.50860263 9356 CubeSX-Sirius-HSE 1 47951U 21022V 21133.81939368 .00000747 00000-0 55801-4 0 9991 2 47951 97.5610 36.6668 0023610 70.4878 289.8892 15.05605979 7849 CubeSX-HSE 1 47952U 21022W 21133.88452512 .00001451 00000-0 10422-3 0 9992 2 47952 97.5608 36.7312 0023344 69.8003 290.5738 15.05646432 7858 KSU-Cubesat 1 47954U 21022Y 21133.68264424 .00001248 00000-0 90062-4 0 9998 2 47954 97.5618 36.5420 0023168 70.5478 289.8250 15.05724234 7541 GRBAlpha 1 47959U 21022AD 21133.75175208 .00000017 00000-0 54641-5 0 9999 2 47959 97.5619 36.6046 0023652 69.7035 290.6750 15.05637834 6654 Orbicraft-Zorkiy 1 47960U 21022AE 21133.74952342 .00001446 00000-0 10372-3 0 9990 2 47960 97.5631 36.6158 0022853 71.4019 288.9733 15.05708591 7345 STECCO 1 47962U 21022AG 21133.84813423 .00001196 00000-0 84372-4 0 9993 2 47962 97.5610 36.7730 0018961 68.7534 291.5740 15.06721947 6660 DO-111 1 47963U 21022AH 21133.70554254 .00002228 00000-0 15191-3 0 9992 2 47963 97.5610 36.6544 0021666 65.2273 295.1206 15.07080561 6669 MO-110 1 47964U 21022AJ 21133.83945835 .00001228 00000-0 85827-4 0 9999 2 47964 97.5604 36.7850 0021835 65.6003 294.7505 15.06983295 6669 /EX
